Regional Weather Roundup
Issued by NWS Little Rock, AR

Home | Current Version | Previous Version | Text Only | Print | Product List | Glossary Off
Versions: 1 2 3 4 5 6 7 8 9 10 11 12 13 14 15 16 17 18 19 20 21 22 23 24 25 26 27 28 29 30 31 32 33 34 35 36 37 38 39 40 41 42 43 44 45 46 47 48 49

000
ASUS44 KLZK 022305
RWRLZK

WEATHER ROUNDUP FOR ARKANSAS
NATIONAL WEATHER SERVICE LITTLE ROCK AR
600 PM CDT SUN AUG 02 2015

NOTE: "FAIR" INDICATES FEW OR NO CLOUDS BELOW 12,000 FEET WITH NO
SIGNIFICANT WEATHER AND/OR OBSTRUCTIONS TO VISIBILITY.

ARZ001-003-010-029-030000-
NORTHWEST ARKANSAS

CITY           SKY/WX    TMP DP  RH WIND       PRES   REMARKS
FAYETTEVILLE   SUNNY     87  64  46 SW7       29.95F HX  88
FORT SMITH     PTSUNNY   93  60  33 E3        29.88F HX  93
HARRISON       SUNNY     89  65  44 W6        29.95F HX  91
BENTONVILLE    SUNNY     90  61  37 NW8       29.96F HX  89
ROGERS         MOSUNNY   89  62  40 W6        29.96F HX  89
SILOAM SPGS    SUNNY     90  63  40 SW9       29.94S HX  90
HIGHFILL       SUNNY     89  67  47 SW7       29.95F HX  92
SPRINGDALE     MOSUNNY   90  61  37 SW7G14    29.97F HX  89
$$

ARZ004-005-016-030000-
NORTH CENTRAL ARKANSAS

CITY           SKY/WX    TMP DP  RH WIND       PRES   REMARKS
BATESVILLE     SUNNY     93  63  36 CALM      29.90F HX  94
FLIPPIN        MOSUNNY   91  63  38 W5        29.90F HX  92
MTN HOME       MOSUNNY   92  66  42 CALM      29.91F HX  94
$$

ARZ040-041-030000-
WEST CENTRAL ARKANSAS

CITY           SKY/WX    TMP DP  RH WIND       PRES   REMARKS
MENA           SUNNY     97  54  23 SE6       29.93S HX  94
MOUNT IDA      SUNNY     93  58  30 CALM      29.89F HX  92
$$

ARZ009-017-025-026-028-030000-
NORTHEAST ARKANSAS

CITY           SKY/WX    TMP DP  RH WIND       PRES   REMARKS
JONESBORO      MOSUNNY   89  67  47 S5        29.89F HX  92
NEWPORT        SUNNY     92  70  48 SE6       29.91F HX  97
WALNUT RIDGE   PTSUNNY   91  66  43 S8        29.89F HX  94
BLYTHEVILLE    PTSUNNY   88  72  58 W6        29.90F HX  94
$$

ARZ022-023-033-042-044-030000-
CENTRAL ARKANSAS

CITY           SKY/WX    TMP DP  RH WIND       PRES   REMARKS
LITTLE ROCK    MOSUNNY   94  65  38 SE10      29.88F HX  96
N LITTLE ROCK  MOSUNNY   94  66  40 S6        29.88F HX  97
JACKSONVILLE   SUNNY     96  64  34 S10       29.88F HX  98
SEARCY         SUNNY     94  70  45 SE7       29.90F HX 100
HOT SPRINGS    SUNNY     97  56  25 S5        29.89F HX  95
RUSSELLVILLE   SUNNY     95  58  28 SW5       29.88F HX  94
CLINTON        FAIR      93  64  38 CALM      29.91F HX  95
$$

ARZ036-030000-
EAST ARKANSAS

CITY           SKY/WX    TMP DP  RH WIND       PRES   REMARKS
WEST MEMPHIS   MOSUNNY   92  71  50 CALM      29.89F HX  98
$$

ARZ050-053-066-070-073-030000-
SOUTHWEST ARKANSAS

CITY           SKY/WX    TMP DP  RH WIND       PRES   REMARKS
ARKADELPHIA    FAIR      99  57  24 VRB3      29.88F HX  98
CAMDEN         SUNNY     97  59  28 CALM      29.88F HX  96
TEXARKANA      SUNNY     95  59  30 SE5       29.89F HX  94
EL DORADO      SUNNY     95  59  30 E6        29.89F HX  94
DE QUEEN       SUNNY     94  60  32 SE6       29.87F HX  94
$$

ARZ056-057-069-030000-
SOUTHEAST ARKANSAS

CITY           SKY/WX    TMP DP  RH WIND       PRES   REMARKS
PINE BLUFF     MOSUNNY   94  65  38 E6        29.90F HX  96
STUTTGART      MOSUNNY   91  64  40 MISG      29.90F HX  93
MONTICELLO     MOSUNNY   95  61  32 E8        29.89F HX  95

$$





USA.gov is the U.S. government's official web portal to all federal, state and local government web resources and services.